INTELSAT 18 (IS-18)

Last updated on Fri Jul 11 2025 00:02:43 GMT+0000 (Coordinated Universal Time)

1 37834U 11056A 25191.58588141 .00000065 00000+0 00000+0 0 9995 2 37834 0.0160 52.7452 0001961 49.3182 217.5953 1.00270892 50380
UTC large
Height (km)
Speed (km/s)
/
Latitude / Longitude
Inclination (degrees)
Orbital Period (minutes)
Azimuth
Elevation
Range (km)
Doppler Factor

Next 0 passes for location: London (51.5072 / 0.1276)

Sorry there are no passes over London.